Leuchars, United Kingdom

1:26 AM BST on April 24, 2017 (GMT +0100)
Leuchars Air Base

Weather History for EGQL - April, 2013

Change the Weather History Date:

Saturday, April 6, 2013

  Actual Average Record
Temperature  
Mean Temperature 38 °F -  
Max Temperature 51 °F 51 °F 64 °F (2015)
Min Temperature 26 °F 38 °F 26 °F (2013)
Degree Days  
Heating Degree Days 26    
Moisture  
Dew Point 28 °F    
Average Humidity 66    
Maximum Humidity 93    
Minimum Humidity 22    
Precipitation  
Precipitation 0.00 in - - ()
Sea Level Pressure  
Sea Level Pressure 30.22 in    
Wind  
Wind Speed 7 mph ()    
Max Wind Speed 13 mph    
Max Gust Speed -    
Visibility 10.4 miles    
Events      
Averages and records for this station are not official NWS values.
T = Trace of Precipitation, MM = Missing Value Source: Averaged Metar Reports

Daily Weather History Graph

Daily Weather History Graph

Search for Another Location

Airport or City:

Trip Planner

Search our weather history database for the weather conditions in past years. The results will help you decide how hot, cold, wet, or windy it might be!

Date:

Astronomy

Apr. 06, 2013 Rise Set
Actual Time 6:28 AM BST 8:00 PM BST
Civil Twilight 5:49 AM BST 8:40 PM BST
Nautical Twilight 5:00 AM BST 9:28 PM BST
Astronomical Twilight 4:05 AM BST 10:24 PM BST
Moon 4:46 AM BST (4/6) 3:35 PM BST (4/6)
Length of Visible Light 14h 50m
Length of Day
13h 32m
Waning Crescent, 17% of the Moon is Illuminated
Apr 6
Waning Crescent
Apr 10
New
Apr 18
First Quarter
Apr 25
Full
May 2
Last Quarter

Hourly Weather History & Observations

Time (BST) Temp. Windchill Dew Point Humidity Pressure Visibility Wind Dir Wind Speed Gust Speed Precip Events Conditions
12:50 AM 27 °F - 25 °F 89% 30.28 in 16 mi West 4.6 mph - -  
12:50 AM 26.6 °F 21.2 °F 24.8 °F 93% 30.27 in - West 4.6 mph - N/A   Clear
1:50 AM 28.4 °F 22.2 °F 24.8 °F 86% 30.24 in - West 5.8 mph - N/A   Clear
2:50 AM 30.2 °F 23.4 °F 24.8 °F 80% 30.24 in - West 6.9 mph - N/A   Clear
3:50 AM 29 °F - 24 °F 75% 30.26 in 16 mi West 5.8 mph - -  
3:50 AM 30.2 °F 24.3 °F 24.8 °F 80% 30.24 in - West 5.8 mph - N/A   Clear
4:36 AM 28.4 °F 19.7 °F 24.8 °F 86% 30.24 in - West 9.2 mph - N/A   Clear
5:50 AM 32.0 °F 24.2 °F 24.8 °F 75% 30.24 in - West 9.2 mph - N/A   Clear
6:50 AM 31 °F - 24 °F 68% 30.25 in 19 mi West 8.1 mph - -   Scattered Clouds
6:50 AM 30.2 °F 22.6 °F 24.8 °F 80% 30.24 in - West 8.1 mph - N/A   Clear
7:50 AM 32.0 °F 28.7 °F 26.6 °F 80% 30.24 in - SSW 3.5 mph - N/A   Clear
8:50 AM 35.6 °F 29.2 °F 30.2 °F 81% 30.24 in - WSW 8.1 mph - N/A   Clear
9:50 AM 41 °F - 30 °F 55% 30.26 in 25 mi West 9.2 mph - -   Mostly Cloudy
9:50 AM 41.0 °F 35.2 °F 30.2 °F 65% 30.24 in - West 9.2 mph - N/A   Clear
10:50 AM 42.8 °F 41.1 °F 28.4 °F 57% 30.24 in - West 3.5 mph - N/A   Clear
11:50 AM 46.4 °F 45.2 °F 30.2 °F 53% 30.24 in 6.2 mi North 3.5 mph - N/A   Scattered Clouds
12:50 PM 44 °F - 27 °F 38% 30.25 in 25 mi East 10.4 mph - -   Scattered Clouds
12:50 PM 44.6 °F 39.2 °F 26.6 °F 49% 30.24 in 6.2 mi East 10.4 mph - N/A   Partly Cloudy
1:50 PM 41.0 °F 34.3 °F 30.2 °F 65% 30.21 in 6.2 mi ESE 11.5 mph - N/A   Partly Cloudy
2:50 PM 46.4 °F 42.9 °F 30.2 °F 53% 30.21 in 6.2 mi ESE 6.9 mph - N/A   Partly Cloudy
3:50 PM 45 °F - 32 °F 50% 30.21 in 19 mi SE 6.9 mph - -   Partly Cloudy
3:50 PM 44.6 °F 40.7 °F 32.0 °F 61% 30.18 in 6.2 mi SE 6.9 mph - N/A   Partly Cloudy
4:50 PM 48.2 °F - 30.2 °F 50% 30.18 in - SE 4.6 mph - N/A   Clear
5:50 PM 50.0 °F - 19.4 °F 30% 30.15 in 6.2 mi West 11.5 mph - N/A   Scattered Clouds
6:50 PM 49 °F - 22 °F 22% 30.17 in 25 mi West 12.7 mph - -   Scattered Clouds
6:50 PM 48.2 °F - 21.2 °F 34% 30.15 in - West 12.7 mph - N/A   Clear
7:50 PM 41.0 °F 34.7 °F 30.2 °F 65% 30.15 in - WSW 10.4 mph - N/A   Clear
8:50 PM 39.2 °F 34.2 °F 30.2 °F 70% 30.18 in - WSW 6.9 mph - N/A   Clear
9:50 PM 37 °F - 30 °F 68% 30.19 in 16 mi WSW 8.1 mph - -   Scattered Clouds
9:50 PM 37.4 °F 31.4 °F 30.2 °F 75% 30.18 in - WSW 8.1 mph - N/A   Clear
10:50 PM 39.2 °F 33.0 °F 33.8 °F 81% 30.18 in - ENE 9.2 mph - N/A   Clear
11:38 PM 37.4 °F 30.3 °F 35.6 °F 93% 30.18 in 6.2 mi ENE 10.4 mph - N/A   Mostly Cloudy
11:50 PM 37.4 °F 30.8 °F 33.8 °F 87% 30.18 in 6.2 mi ENE 9.2 mph - N/A   Mostly Cloudy